Black River Falls, WI

8:31 PM CST on February 25, 2018 (GMT -0600)
Black River Falls Area

Weather History for KBCK - August, 2014

Change the Weather History Date:

Friday, August 8, 2014

  Actual Average (KCMY) Record (KCMY)
Temperature  
Mean Temperature 66 °F -  
Max Temperature 84 °F 82 °F 94 °F (1988)
Min Temperature 49 °F 59 °F 42 °F (2013)
Cooling Degree Days 1    
Growing Degree Days 16 (Base 50)    
Moisture  
Dew Point 56 °F    
Average Humidity 74    
Maximum Humidity 100    
Minimum Humidity 33    
Precipitation  
Precipitation 0.00 in - - ()
Sea Level Pressure  
Sea Level Pressure 30.10 in    
Wind  
Wind Speed 2 mph (East)    
Max Wind Speed 9 mph    
Max Gust Speed -    
Visibility 9 miles    
Events      
Averages and records for this station are not official NWS values.
T = Trace of Precipitation, MM = Missing Value Source: NWS Daily Summary

Daily Weather History Graph

Daily Weather History Graph

Search for Another Location

Airport or City:

Trip Planner

Search our weather history database for the weather conditions in past years. The results will help you decide how hot, cold, wet, or windy it might be!

Date:

Astronomy

Aug. 08, 2014 Rise Set
Actual Time 5:58 AM CDT 8:18 PM CDT
Civil Twilight 5:26 AM CDT 8:50 PM CDT
Nautical Twilight 4:46 AM CDT 9:30 PM CDT
Astronomical Twilight 4:01 AM CDT 10:15 PM CDT
Moon 6:30 PM CDT (8/8) 3:30 AM CDT (8/8)
Length of Visible Light 15h 24m
Length of Day
14h 19m
Waxing Gibbous, 94% of the Moon is Illuminated
Aug 8
Waxing Gibbous
Aug 10
Full
Aug 17
Last Quarter
Aug 25
New
Sep 2
First Quarter

Hourly Weather History & Observations

Time (CDT) Temp. Heat Index Dew Point Humidity Pressure Visibility Wind Dir Wind Speed Gust Speed Precip Events Conditions
12:15 AM 57.6 °F - 57.6 °F 100% 30.08 in 10.0 mi Calm Calm - N/A   Clear
12:35 AM 56.7 °F - 56.5 °F 99% 30.08 in 7.0 mi Calm Calm - N/A   Clear
12:55 AM 56.3 °F - 56.3 °F 100% 30.08 in 5.0 mi Calm Calm - N/A   Clear
1:15 AM 56.5 °F - 56.5 °F 100% 30.08 in 10.0 mi Calm Calm - N/A   Clear
1:35 AM 55.9 °F - 55.9 °F 100% 30.08 in 7.0 mi ENE 3.5 mph - N/A   Clear
1:55 AM 55.8 °F - 55.8 °F 100% 30.08 in 7.0 mi Calm Calm - N/A   Clear
2:15 AM 53.8 °F - 53.8 °F 100% 30.08 in 7.0 mi Calm Calm - N/A   Clear
2:35 AM 52.7 °F - 52.7 °F 100% 30.08 in 7.0 mi Calm Calm - N/A   Clear
2:55 AM 52.0 °F - 52.0 °F 100% 30.09 in 4.0 mi Calm Calm - N/A   Clear
3:15 AM 51.3 °F - 51.3 °F 100% 30.09 in 7.0 mi Calm Calm - N/A   Clear
3:35 AM 50.7 °F - 50.7 °F 100% 30.09 in 7.0 mi Calm Calm - N/A   Clear
3:55 AM 49.6 °F - 49.6 °F 100% 30.09 in 5.0 mi Calm Calm - N/A   Clear
4:15 AM 49.5 °F - 49.5 °F 100% 30.10 in 7.0 mi Calm Calm - N/A   Clear
4:35 AM 49.5 °F - 49.5 °F 100% 30.11 in 10.0 mi Calm Calm - N/A   Clear
4:55 AM 50.2 °F - 50.2 °F 100% 30.11 in 10.0 mi Calm Calm - N/A   Mostly Cloudy
5:15 AM 52.3 °F - 52.3 °F 100% 30.11 in 10.0 mi ENE 3.5 mph - N/A   Overcast
5:35 AM 54.1 °F - 54.1 °F 100% 30.11 in 10.0 mi Calm Calm - N/A   Scattered Clouds
5:55 AM 55.0 °F - 55.0 °F 100% 30.11 in 7.0 mi Calm Calm - N/A   Clear
6:15 AM 55.9 °F - 55.9 °F 100% 30.13 in 10.0 mi NNE 3.5 mph - N/A   Clear
6:35 AM 56.5 °F - 56.5 °F 100% 30.12 in 7.0 mi ENE 3.5 mph - N/A   Clear
6:55 AM 58.1 °F - 57.9 °F 99% 30.13 in 10.0 mi NE 3.5 mph - N/A   Scattered Clouds
7:15 AM 58.5 °F - 57.7 °F 97% 30.13 in 10.0 mi NNE 3.5 mph - N/A   Mostly Cloudy
7:35 AM 59.2 °F - 57.9 °F 96% 30.13 in 10.0 mi NE 4.6 mph - N/A   Overcast
7:55 AM 60.1 °F - 58.3 °F 94% 30.13 in 10.0 mi NNE 3.5 mph - N/A   Overcast
8:15 AM 60.8 °F - 58.5 °F 92% 30.14 in 10.0 mi North 3.5 mph - N/A   Overcast
8:35 AM 62.1 °F - 58.8 °F 89% 30.14 in 10.0 mi NE 4.6 mph - N/A   Scattered Clouds
8:55 AM 63.3 °F - 59.2 °F 86% 30.14 in 10.0 mi Calm Calm - N/A   Mostly Cloudy
9:15 AM 64.0 °F - 57.9 °F 80% 30.14 in 10.0 mi Calm Calm - N/A   Mostly Cloudy
9:35 AM 65.3 °F - 58.1 °F 77% 30.13 in 10.0 mi Calm Calm - N/A   Mostly Cloudy
9:55 AM 66.4 °F - 58.6 °F 76% 30.13 in 10.0 mi Calm Calm - N/A   Overcast
10:15 AM 68.5 °F - 58.5 °F 70% 30.13 in 10.0 mi ENE 3.5 mph - N/A   Mostly Cloudy
10:35 AM 69.8 °F - 58.1 °F 66% 30.13 in 10.0 mi ENE 3.5 mph - N/A   Mostly Cloudy
10:55 AM 70.9 °F - 58.8 °F 66% 30.13 in 10.0 mi Calm Calm - N/A   Mostly Cloudy
11:15 AM 72.0 °F - 57.6 °F 60% 30.13 in 10.0 mi Calm Calm - N/A   Overcast
11:40 AM 74.1 °F - 57.7 °F 56% 30.13 in 10.0 mi NE 3.5 mph - N/A   Overcast
11:55 AM 74.5 °F - 57.2 °F 55% 30.13 in 10.0 mi ENE 3.5 mph - N/A   Mostly Cloudy
12:15 PM 75.4 °F - 57.2 °F 53% 30.12 in 10.0 mi East 3.5 mph - N/A   Mostly Cloudy
12:35 PM 76.5 °F - 55.8 °F 49% 30.12 in 10.0 mi SSE 3.5 mph - N/A   Mostly Cloudy
12:55 PM 77.5 °F - 55.0 °F 46% 30.11 in 10.0 mi ESE 5.8 mph - N/A   Mostly Cloudy
1:15 PM 79.0 °F - 55.2 °F 44% 30.11 in 10.0 mi SE 4.6 mph - N/A   Overcast
1:35 PM 81.0 °F 80.7 °F 55.0 °F 41% 30.11 in 10.0 mi SE 5.8 mph - N/A   Mostly Cloudy
1:55 PM 81.9 °F 81.1 °F 53.8 °F 38% 30.11 in 10.0 mi South 9.2 mph - N/A   Mostly Cloudy
2:15 PM 81.0 °F 80.5 °F 53.6 °F 39% 30.09 in 5.0 mi South 5.8 mph - N/A   Haze
2:35 PM 83.1 °F 82.1 °F 54.1 °F 37% 30.09 in 10.0 mi SSE 4.6 mph - N/A   Mostly Cloudy
2:55 PM 81.7 °F 81.0 °F 53.8 °F 38% 30.08 in 10.0 mi SSE 5.8 mph - N/A   Mostly Cloudy
3:35 PM 81.9 °F - 51.4 °F 35% 30.07 in 10.0 mi East 4.6 mph - N/A   Scattered Clouds
3:55 PM 82.8 °F - 51.6 °F 34% 30.07 in 10.0 mi East 4.6 mph - N/A   Clear
4:15 PM 83.5 °F - 51.8 °F 33% 30.07 in 10.0 mi SE 6.9 mph - N/A   Mostly Cloudy
4:35 PM 83.1 °F - 52.0 °F 34% 30.06 in 10.0 mi East 8.1 mph - N/A   Mostly Cloudy
4:55 PM 79.9 °F - 53.1 °F 39% 30.06 in 10.0 mi ESE 4.6 mph - N/A   Mostly Cloudy
5:15 PM 82.9 °F - 52.2 °F 34% 30.06 in 10.0 mi East 3.5 mph - N/A   Scattered Clouds
5:35 PM 82.6 °F - 52.2 °F 35% 30.06 in 10.0 mi ESE 3.5 mph - N/A   Clear
5:55 PM 82.4 °F - 52.7 °F 36% 30.06 in 10.0 mi SE 3.5 mph - N/A   Clear
6:15 PM 82.4 °F - 50.9 °F 33% 30.06 in 10.0 mi ESE 4.6 mph - N/A   Clear
6:35 PM 81.9 °F - 51.3 °F 34% 30.06 in 10.0 mi Calm Calm - N/A   Clear
6:55 PM 81.0 °F 80.4 °F 53.1 °F 38% 30.07 in 10.0 mi SE 3.5 mph - N/A   Scattered Clouds
7:15 PM 79.3 °F - 55.0 °F 43% 30.07 in 10.0 mi Calm Calm - N/A   Overcast
7:35 PM 77.0 °F - 58.8 °F 53% 30.07 in 10.0 mi Calm Calm - N/A   Mostly Cloudy
7:55 PM 74.8 °F - 59.9 °F 60% 30.07 in 10.0 mi Calm Calm - N/A   Scattered Clouds
8:15 PM 72.3 °F - 61.0 °F 67% 30.06 in 10.0 mi Calm Calm - N/A   Clear
8:35 PM 70.0 °F - 61.2 °F 73% 30.06 in 10.0 mi Calm Calm - N/A   Clear
8:55 PM 67.8 °F - 61.3 °F 80% 30.07 in 7.0 mi Calm Calm - N/A   Scattered Clouds
9:15 PM 66.0 °F - 60.1 °F 81% 30.07 in 10.0 mi Calm Calm - N/A   Scattered Clouds
9:35 PM 64.8 °F - 61.9 °F 90% 30.07 in 10.0 mi Calm Calm - N/A   Clear
9:55 PM 63.5 °F - 60.6 °F 90% 30.08 in 10.0 mi Calm Calm - N/A   Scattered Clouds
10:15 PM 62.8 °F - 61.3 °F 95% 30.08 in 10.0 mi Calm Calm - N/A   Scattered Clouds
10:35 PM 61.5 °F - 60.8 °F 97% 30.08 in 10.0 mi Calm Calm - N/A   Clear
10:55 PM 61.0 °F - 60.4 °F 98% 30.09 in 10.0 mi Calm Calm - N/A   Mostly Cloudy
11:15 PM 61.0 °F - 60.8 °F 99% 30.11 in 10.0 mi Calm Calm - N/A   Overcast
11:35 PM 60.6 °F - 60.4 °F 99% 30.11 in 10.0 mi Calm Calm - N/A   Overcast